| time (UTC) | temp F | wind direction | speed knots | gust knots | rain 1hr in | rain 24hr in | rain mn in | humidity % | barometer mb |
| 20260510180359 | 86 | 146 | 1.7 | 7.0 | 0.00 | 0.00 | 0.00 | 69 | 1013.5 |
| 20260510175330 | 86 | 139 | 4.3 | 7.0 | 0.00 | 0.00 | 0.00 | 70 | 1013.6 |
| 20260510174340 | 86 | 115 | 1.7 | 7.8 | 0.00 | 0.00 | 0.00 | 71 | 1013.7 |
| 20260510173326 | 86 | 103 | 5.2 | 8.7 | 0.00 | 0.00 | 0.00 | 71 | 1013.9 |
| 20260510172357 | 85 | 115 | 1.7 | 4.3 | 0.00 | 0.00 | 0.00 | 70 | 1014.1 |
| 20260510171341 | 85 | 113 | 2.6 | 5.2 | 0.00 | 0.00 | 0.00 | 71 | 1014.3 |
| 20260510170349 | 84 | 116 | 1.7 | 7.0 | 0.00 | 0.00 | 0.00 | 73 | 1014.3 |
| 20260510165355 | 84 | 125 | 2.6 | 6.1 | 0.00 | 0.00 | 0.00 | 74 | 1014.4 |
| 20260510164342 | 84 | 45 | 0.0 | 1.7 | 0.00 | 0.00 | 0.00 | 76 | 1014.5 |
| 20260510163326 | 83 | 61 | 0.0 | 1.7 | 0.00 | 0.00 | 0.00 | 78 | 1014.6 |
| 20260510162337 | 82 | 165 | 0.0 | 3.5 | 0.00 | 0.00 | 0.00 | 79 | 1014.6 |
| 20260510161403 | 82 | 66 | 0.9 | 4.3 | 0.00 | 0.00 | 0.00 | 80 | 1014.8 |
| 20260510160329 | 81 | 29 | 0.0 | 1.7 | 0.00 | 0.00 | 0.00 | 82 | 1014.8 |
| 20260510155337 | 80 | 126 | 0.0 | 0.9 | 0.00 | 0.00 | 0.00 | 81 | 1015.0 |
| 20260510154324 | 80 | 31 | 0.9 | 4.3 | 0.00 | 0.00 | 0.00 | 84 | 1015.1 |
| 20260510153329 | 80 | 86 | 0.0 | 0.9 | 0.00 | 0.00 | 0.00 | 84 | 1015.2 |
| 20260510152335 | 79 | 71 | 0.0 | 1.7 | 0.00 | 0.00 | 0.00 | 85 | 1015.3 |
| 20260510151326 | 79 | 98 | 0.0 | 7.0 | 0.00 | 0.00 | 0.00 | 86 | 1015.1 |
| 20260510150335 | 78 | 46 | 0.0 | 0.9 | 0.00 | 0.00 | 0.00 | 89 | 1015.1 |
| 20260510145401 | 77 | 119 | 0.0 | 1.7 | 0.00 | 0.00 | 0.00 | 90 | 1015.1 |
| 20260510144326 | 77 | 13 | 0.0 | 4.3 | 0.00 | 0.00 | 0.00 | 90 | 1015.2 |
| 20260510143332 | 77 | 29 | 0.0 | 2.6 | 0.00 | 0.00 | 0.00 | 92 | 1015.1 |
| 20260510142341 | 76 | 336 | 0.9 | 3.5 | 0.00 | 0.00 | 0.00 | 92 | 1015.0 |
| 20260510141332 | 76 | 91 | 0.0 | 0.0 | 0.00 | 0.00 | 0.00 | 93 | 1014.9 |
| 20260510140336 | 76 | 8 | 0.0 | 0.0 | 0.00 | 0.00 | 0.00 | 94 | 1014.8 |
| 20260510135326 | 75 | 58 | 0.0 | 0.0 | 0.00 | 0.00 | 0.00 | 94 | 1014.6 |
| 20260510134334 | 75 | 62 | 0.0 | 0.9 | 0.00 | 0.00 | 0.00 | 95 | 1014.5 |
| 20260510133341 | 75 | 42 | 0.0 | 2.6 | 0.00 | 0.00 | 0.00 | 95 | 1014.4 |
| 20260510132329 | 75 | 52 | 0.0 | 0.0 | 0.00 | 0.00 | 0.00 | 95 | 1014.3 |
| 20260510131336 | 75 | 25 | 0.0 | 0.0 | 0.00 | 0.00 | 0.00 | 95 | 1014.0 |
| 20260510130325 | 74 | 327 | 0.0 | 0.0 | 0.00 | 0.00 | 0.00 | 95 | 1013.8 |
| 20260510125354 | 74 | 71 | 0.0 | 0.0 | 0.00 | 0.00 | 0.00 | 95 | 1013.6 |
| 20260510124340 | 74 | 345 | 0.0 | 0.0 | 0.00 | 0.00 | 0.00 | 95 | 1013.4 |
| 20260510123327 | 74 | 345 | 0.0 | 0.0 | 0.00 | 0.00 | 0.00 | 95 | 1013.2 |
| 20260510122336 | 74 | 96 | 0.0 | 0.0 | 0.00 | 0.00 | 0.00 | 95 | 1013.0 |
| 20260510121325 | 73 | 96 | 0.0 | 0.0 | 0.00 | 0.00 | 0.00 | 95 | 1012.8 |
| 20260510120352 | 73 | 104 | 0.0 | 1.7 | 0.00 | 0.00 | 0.00 | 95 | 1012.5 |
| 20260510115323 | 73 | 133 | 1.7 | 2.6 | 0.00 | 0.00 | 0.00 | 95 | 1012.3 |
| 20260510114333 | 73 | 135 | 0.9 | 3.5 | 0.00 | 0.00 | 0.00 | 94 | 1012.1 |
| 20260510113342 | 73 | 158 | 0.0 | 4.3 | 0.00 | 0.00 | 0.00 | 94 | 1011.8 |
| 20260510112328 | 73 | 150 | 0.9 | 3.5 | 0.00 | 0.00 | 0.00 | 95 | 1011.7 |
| 20260510111338 | 73 | 145 | 1.7 | 3.5 | 0.00 | 0.00 | 0.00 | 94 | 1011.6 |
| 20260510110348 | 73 | 142 | 0.9 | 2.6 | 0.00 | 0.00 | 0.00 | 94 | 1011.6 |
| 20260510105337 | 73 | 122 | 0.0 | 2.6 | 0.00 | 0.00 | 0.00 | 94 | 1011.4 |
| 20260510104350 | 73 | 140 | 1.7 | 3.5 | 0.00 | 0.00 | 0.00 | 94 | 1011.3 |
| 20260510103338 | 73 | 140 | 0.9 | 3.5 | 0.00 | 0.00 | 0.00 | 94 | 1011.3 |
| 20260510102328 | 73 | 138 | 1.7 | 3.5 | 0.00 | 0.00 | 0.00 | 94 | 1011.3 |
| 20260510101334 | 73 | 137 | 1.7 | 5.2 | 0.00 | 0.00 | 0.00 | 94 | 1011.2 |
| 20260510100325 | 73 | 137 | 0.9 | 4.3 | 0.00 | 0.00 | 0.00 | 94 | 1011.1 |
| 20260510095332 | 73 | 141 | 1.7 | 4.3 | 0.00 | 0.00 | 0.00 | 94 | 1011.1 |
| 20260510094342 | 73 | 130 | 0.9 | 2.6 | 0.00 | 0.00 | 0.00 | 94 | 1011.1 |
| 20260510093334 | 73 | 165 | 0.9 | 3.5 | 0.00 | 0.00 | 0.00 | 93 | 1011.0 |
| 20260510092343 | 73 | 144 | 1.7 | 8.7 | 0.00 | 0.00 | 0.00 | 93 | 1011.0 |
| 20260510091351 | 73 | 160 | 0.9 | 1.7 | 0.00 | 0.00 | 0.00 | 94 | 1011.1 |
| 20260510090339 | 73 | 135 | 0.9 | 2.6 | 0.00 | 0.00 | 0.00 | 94 | 1011.2 |
| 20260510085329 | 72 | 163 | 0.0 | 0.0 | 0.00 | 0.00 | 0.00 | 93 | 1011.4 |
| 20260510084335 | 72 | 90 | 0.0 | 1.7 | 0.00 | 0.00 | 0.00 | 93 | 1011.3 |
| 20260510083325 | 72 | 183 | 0.0 | 0.9 | 0.00 | 0.00 | 0.00 | 93 | 1011.4 |
| 20260510082356 | 72 | 139 | 0.0 | 0.9 | 0.00 | 0.00 | 0.00 | 93 | 1011.2 |
| 20260510081325 | 72 | 135 | 0.0 | 0.9 | 0.00 | 0.00 | 0.00 | 93 | 1011.2 |
| 20260510080332 | 72 | 135 | 0.9 | 1.7 | 0.00 | 0.00 | 0.00 | 92 | 1011.3 |
| 20260510075342 | 72 | 135 | 0.0 | 0.0 | 0.00 | 0.00 | 0.00 | 92 | 1011.3 |
| 20260510074330 | 72 | 106 | 0.0 | 0.0 | 0.00 | 0.00 | 0.00 | 91 | 1011.5 |
| 20260510073338 | 73 | 105 | 0.0 | 0.0 | 0.00 | 0.00 | 0.00 | 90 | 1011.6 |
| 20260510072326 | 74 | 105 | 0.0 | 0.0 | 0.00 | 0.00 | 0.00 | 90 | 1011.4 |
| 20260510071355 | 74 | 105 | 0.0 | 0.0 | 0.00 | 0.00 | 0.00 | 90 | 1011.4 |
| 20260510070328 | 74 | 115 | 0.0 | 1.7 | 0.00 | 0.00 | 0.00 | 90 | 1011.3 |
| 20260510065335 | 74 | 123 | 0.9 | 3.5 | 0.00 | 0.00 | 0.00 | 89 | 1011.4 |
| 20260510064324 | 74 | 128 | 1.7 | 2.6 | 0.00 | 0.00 | 0.00 | 88 | 1011.4 |
| 20260510063333 | 74 | 117 | 1.7 | 5.2 | 0.00 | 0.00 | 0.00 | 87 | 1011.4 |
| 20260510062341 | 75 | 127 | 3.5 | 6.1 | 0.00 | 0.00 | 0.00 | 87 | 1011.5 |
| 20260510061349 | 75 | 139 | 2.6 | 7.0 | 0.00 | 0.00 | 0.00 | 85 | 1011.3 |
| 20260510060333 | 75 | 131 | 3.5 | 6.1 | 0.00 | 0.00 | 0.00 | 85 | 1011.4 |
| 20260510055326 | 75 | 115 | 3.5 | 7.0 | 0.00 | 0.00 | 0.00 | 83 | 1011.5 |
| 20260510054333 | 75 | 129 | 3.5 | 6.1 | 0.00 | 0.00 | 0.00 | 82 | 1011.7 |
| 20260510053340 | 75 | 132 | 2.6 | 5.2 | 0.00 | 0.00 | 0.00 | 82 | 1011.7 |
| 20260510052328 | 75 | 139 | 2.6 | 4.3 | 0.00 | 0.00 | 0.00 | 81 | 1011.7 |
| 20260510051337 | 76 | 116 | 2.6 | 7.0 | 0.00 | 0.00 | 0.00 | 80 | 1011.7 |
| 20260510050326 | 76 | 117 | 4.3 | 7.8 | 0.00 | 0.00 | 0.00 | 79 | 1011.6 |
| 20260510045356 | 76 | 85 | 3.5 | 7.8 | 0.00 | 0.00 | 0.00 | 78 | 1011.6 |
| 20260510044329 | 76 | 119 | 4.3 | 7.0 | 0.00 | 0.00 | 0.00 | 78 | 1011.6 |
| 20260510043334 | 76 | 134 | 3.5 | 7.0 | 0.00 | 0.00 | 0.00 | 78 | 1011.6 |
| 20260510042344 | 76 | 98 | 4.3 | 7.0 | 0.00 | 0.00 | 0.00 | 77 | 1011.4 |
| 20260510041331 | 76 | 137 | 3.5 | 6.1 | 0.00 | 0.00 | 0.00 | 78 | 1011.5 |
| 20260510040358 | 75 | 100 | 2.6 | 5.2 | 0.00 | 0.00 | 0.00 | 78 | 1011.7 |
| 20260510035324 | 75 | 125 | 0.9 | 1.7 | 0.00 | 0.00 | 0.00 | 76 | 1011.7 |
| 20260510034332 | 76 | 106 | 0.9 | 3.5 | 0.00 | 0.00 | 0.00 | 74 | 1011.8 |
| 20260510033324 | 75 | 98 | 0.0 | 1.7 | 0.00 | 0.00 | 0.00 | 75 | 1011.6 |
| 20260510032331 | 75 | 105 | 0.9 | 2.6 | 0.00 | 0.00 | 0.00 | 75 | 1011.3 |
| 20260510031338 | 75 | 87 | 0.0 | 0.0 | 0.00 | 0.00 | 0.00 | 75 | 1011.0 |
| 20260510030325 | 75 | 86 | 0.0 | 0.9 | 0.00 | 0.00 | 0.00 | 76 | 1010.7 |
| 20260510025334 | 76 | 96 | 0.0 | 0.0 | 0.00 | 0.00 | 0.00 | 75 | 1010.3 |
| 20260510024343 | 77 | 177 | 0.0 | 0.9 | 0.00 | 0.00 | 0.00 | 72 | 1010.1 |
| 20260510023330 | 77 | 171 | 0.0 | 2.6 | 0.00 | 0.00 | 0.00 | 71 | 1009.9 |
| 20260510022358 | 77 | 172 | 0.9 | 2.6 | 0.00 | 0.00 | 0.00 | 71 | 1009.8 |
| 20260510021330 | 77 | 145 | 1.7 | 3.5 | 0.00 | 0.00 | 0.00 | 71 | 1009.9 |
| 20260510020338 | 78 | 152 | 1.7 | 3.5 | 0.00 | 0.00 | 0.00 | 69 | 1009.8 |
| 20260510015326 | 78 | 148 | 0.9 | 4.3 | 0.00 | 0.00 | 0.00 | 72 | 1009.5 |
| 20260510014336 | 78 | 137 | 1.7 | 5.2 | 0.00 | 0.00 | 0.00 | 71 | 1009.3 |
| 20260510013325 | 79 | 156 | 2.6 | 8.7 | 0.00 | 0.00 | 0.00 | 68 | 1009.3 |
| 20260510012335 | 79 | 145 | 0.0 | 4.3 | 0.00 | 0.00 | 0.00 | 68 | 1009.2 |
| 20260510011327 | 80 | 126 | 0.9 | 3.5 | 0.00 | 0.00 | 0.00 | 66 | 1009.0 |
| 20260510010358 | 81 | 125 | 0.0 | 0.0 | 0.00 | 0.00 | 0.00 | 65 | 1008.8 |
| 20260510005326 | 81 | 62 | 0.9 | 4.3 | 0.00 | 0.00 | 0.00 | 65 | 1008.9 |
| 20260510004335 | 83 | 135 | 2.6 | 5.2 | 0.00 | 0.00 | 0.00 | 67 | 1008.9 |
| 20260510003342 | 84 | 121 | 1.7 | 3.5 | 0.00 | 0.00 | 0.00 | 80 | 1008.9 |
| 20260510002351 | 84 | 115 | 0.0 | 0.0 | 0.00 | 0.00 | 0.00 | 81 | 1008.8 |
| 20260510001337 | 84 | 115 | 0.0 | 0.0 | 0.00 | 0.00 | 0.00 | 83 | 1008.7 |
| 20260510000326 | 84 | 115 | 0.0 | 0.0 | 0.00 | 0.00 | 0.00 | 84 | 1008.3 |
| 20260509235331 | 85 | 115 | 0.0 | 0.0 | 0.00 | 0.00 | 0.00 | 80 | 1008.2 |
| 20260509234400 | 85 | 115 | 0.0 | 0.0 | 0.00 | 0.00 | 0.00 | 80 | 1008.2 |
| 20260509233327 | 85 | 115 | 0.0 | 0.0 | 0.00 | 0.00 | 0.00 | 80 | 1008.4 |
| 20260509232353 | 85 | 115 | 0.0 | 0.0 | 0.00 | 0.00 | 0.00 | 78 | 1008.5 |
| 20260509231339 | 85 | 115 | 0.0 | 0.0 | 0.00 | 0.00 | 0.00 | 77 | 1008.4 |
| 20260509230328 | 85 | 115 | 0.0 | 0.0 | 0.00 | 0.00 | 0.00 | 78 | 1008.2 |
| 20260509225334 | 86 | 115 | 0.0 | 0.0 | 0.00 | 0.00 | 0.00 | 77 | 1008.3 |
| 20260509224328 | 86 | 115 | 0.0 | 0.0 | 0.00 | 0.00 | 0.00 | 73 | 1008.2 |
| 20260509223338 | 86 | 115 | 0.0 | 0.0 | 0.00 | 0.00 | 0.00 | 73 | 1008.1 |
| 20260509222325 | 87 | 115 | 0.0 | 0.9 | 0.00 | 0.00 | 0.00 | 70 | 1008.3 |
| 20260509221349 | 87 | 115 | 0.9 | 1.7 | 0.00 | 0.00 | 0.00 | 70 | 1007.9 |
| 20260509220331 | 86 | 107 | 0.0 | 0.0 | 0.00 | 0.00 | 0.00 | 70 | 1007.8 |
| 20260509215339 | 86 | 107 | 0.0 | 0.0 | 0.00 | 0.00 | 0.00 | 69 | 1008.0 |
| 20260509214330 | 86 | 107 | 0.0 | 0.0 | 0.00 | 0.00 | 0.00 | 71 | 1008.0 |
| 20260509213338 | 87 | 113 | 0.9 | 2.6 | 0.00 | 0.00 | 0.00 | 70 | 1008.1 |
| 20260509212344 | 88 | 319 | 0.0 | 2.6 | 0.00 | 0.00 | 0.00 | 65 | 1008.0 |
| 20260509211329 | 88 | 13 | 2.6 | 4.3 | 0.00 | 0.00 | 0.00 | 65 | 1008.1 |
| 20260509210338 | 88 | 292 | 0.0 | 0.0 | 0.00 | 0.00 | 0.00 | 66 | 1008.1 |
| 20260509205326 | 87 | 318 | 0.0 | 3.5 | 0.00 | 0.00 | 0.00 | 70 | 1008.4 |
| 20260509204334 | 87 | 100 | 0.0 | 1.7 | 0.00 | 0.00 | 0.00 | 71 | 1008.6 |
| 20260509203341 | 87 | 308 | 0.0 | 2.6 | 0.00 | 0.00 | 0.00 | 71 | 1008.6 |
| 20260509202333 | 86 | 171 | 0.0 | 2.6 | 0.00 | 0.00 | 0.00 | 71 | 1008.7 |
| 20260509201341 | 86 | 127 | 0.9 | 2.6 | 0.00 | 0.00 | 0.00 | 72 | 1008.8 |
| 20260509200330 | 86 | 54 | 0.9 | 2.6 | 0.00 | 0.00 | 0.00 | 74 | 1008.9 |
| 20260509195359 | 85 | 7 | 0.0 | 1.7 | 0.00 | 0.00 | 0.00 | 76 | 1009.0 |
| 20260509194326 | 86 | 340 | 0.9 | 3.5 | 0.00 | 0.00 | 0.00 | 74 | 1009.1 |
| 20260509193332 | 85 | 130 | 0.0 | 2.6 | 0.00 | 0.00 | 0.00 | 75 | 1009.2 |
| 20260509192359 | 85 | 114 | 0.0 | 2.6 | 0.00 | 0.00 | 0.00 | 76 | 1009.4 |
| 20260509191331 | 85 | 85 | 0.0 | 2.6 | 0.00 | 0.00 | 0.00 | 75 | 1009.4 |
| 20260509190337 | 85 | 121 | 0.9 | 3.5 | 0.00 | 0.00 | 0.00 | 76 | 1009.5 |
| 20260509185324 | 84 | 129 | 0.9 | 2.6 | 0.00 | 0.00 | 0.00 | 76 | 1009.6 |
| 20260509184332 | 84 | 254 | 0.0 | 2.6 | 0.00 | 0.00 | 0.00 | 76 | 1009.6 |
| 20260509183339 | 84 | 131 | 2.6 | 6.1 | 0.00 | 0.00 | 0.00 | 78 | 1009.7 |
| 20260509182327 | 84 | 147 | 1.7 | 6.1 | 0.00 | 0.00 | 0.00 | 78 | 1009.8 |
| 20260509181335 | 84 | 119 | 2.6 | 5.2 | 0.00 | 0.00 | 0.00 | 79 | 1009.8 |